TimeMST,TemperatureF,Dew PointF,Humidity,Sea Level PressureIn,VisibilityMPH,Wind Direction,Wind SpeedMPH,Gust SpeedMPH,PrecipitationIn,Events,Conditions,WindDirDegrees,DateUTC
12:35 AM,-14.8,-20.2,77,30.27,10.0,WNW,6.9,-,N/A,,Clear,290,2013-01-04 07:35:00
12:55 AM,-18.4,-23.8,76,30.27,10.0,WNW,4.6,-,N/A,,Clear,300,2013-01-04 07:55:00
1:15 AM,-16.6,-22.0,76,30.27,10.0,Calm,Calm,-,N/A,,Clear,0,2013-01-04 08:15:00
1:35 AM,-16.6,-22.0,76,30.27,10.0,WNW,3.5,-,N/A,,Clear,300,2013-01-04 08:35:00
1:55 AM,-18.4,-23.8,76,30.26,10.0,WSW,4.6,-,N/A,,Clear,250,2013-01-04 08:55:00
2:15 AM,-18.4,-23.8,76,30.26,10.0,West,6.9,-,N/A,,Clear,280,2013-01-04 09:15:00
4:55 AM,-16.6,-22.0,76,30.24,10.0,West,3.5,-,N/A,,Clear,270,2013-01-04 11:55:00
5:15 AM,-16.6,-22.0,76,30.24,10.0,Calm,Calm,-,N/A,,Clear,0,2013-01-04 12:15:00
5:35 AM,-16.6,-22.0,76,30.24,10.0,Calm,Calm,-,N/A,,Clear,0,2013-01-04 12:35:00
6:15 AM,-16.6,-23.8,70,30.24,10.0,West,3.5,-,N/A,,Clear,260,2013-01-04 13:15:00
6:35 AM,-16.6,-22.0,76,30.24,10.0,Calm,Calm,-,N/A,,Clear,0,2013-01-04 13:35:00
6:55 AM,-18.4,-23.8,76,30.23,10.0,Calm,Calm,-,N/A,,Clear,0,2013-01-04 13:55:00
7:15 AM,-18.4,-25.6,70,30.24,10.0,Calm,Calm,-,N/A,,Clear,0,2013-01-04 14:15:00
7:35 AM,-16.6,-22.0,76,30.24,10.0,Calm,Calm,-,N/A,,Clear,0,2013-01-04 14:35:00
7:55 AM,-18.4,-23.8,76,30.24,10.0,Calm,Calm,-,N/A,,Clear,0,2013-01-04 14:55:00
8:15 AM,-16.6,-22.0,76,30.24,10.0,Calm,Calm,-,N/A,,Clear,0,2013-01-04 15:15:00
8:35 AM,-14.8,-22.0,70,30.24,10.0,Calm,Calm,-,N/A,,Clear,0,2013-01-04 15:35:00
8:55 AM,-13.0,-16.6,84,30.24,7.0,Calm,Calm,-,N/A,,Clear,0,2013-01-04 15:55:00
9:15 AM,-11.2,-16.6,77,30.24,1.0,Calm,Calm,-,N/A,,Haze,0,2013-01-04 16:15:00
9:35 AM,-9.4,-14.8,77,30.25,2.0,Calm,Calm,-,N/A,,Haze,0,2013-01-04 16:35:00
9:55 AM,-5.8,-13.0,71,30.25,10.0,Calm,Calm,-,N/A,,Clear,0,2013-01-04 16:55:00
10:15 AM,-4.0,-7.6,85,30.25,10.0,Calm,Calm,-,N/A,,Clear,0,2013-01-04 17:15:00
10:35 AM,-0.4,-5.8,78,30.25,10.0,Calm,Calm,-,N/A,,Clear,0,2013-01-04 17:35:00
10:55 AM,1.4,-4.0,78,30.24,10.0,Calm,Calm,-,N/A,,Clear,0,2013-01-04 17:55:00
11:15 AM,3.2,-0.4,85,30.23,10.0,Calm,Calm,-,N/A,,Clear,0,2013-01-04 18:15:00
11:35 AM,5.0,-0.4,78,30.22,10.0,Calm,Calm,-,N/A,,Clear,0,2013-01-04 18:35:00
11:55 AM,8.6,1.4,73,30.21,10.0,Calm,Calm,-,N/A,,Clear,0,2013-01-04 18:55:00
12:15 PM,10.4,-0.4,62,30.20,10.0,NNW,3.5,-,N/A,,Clear,330,2013-01-04 19:15:00
12:35 PM,10.4,1.4,67,30.18,10.0,Calm,Calm,-,N/A,,Clear,0,2013-01-04 19:35:00
12:55 PM,12.2,1.4,62,30.17,10.0,Calm,Calm,-,N/A,,Clear,0,2013-01-04 19:55:00
1:15 PM,14.0,3.2,62,30.16,10.0,Calm,Calm,-,N/A,,Clear,0,2013-01-04 20:15:00
1:35 PM,17.6,3.2,53,30.15,10.0,Calm,Calm,-,N/A,,Clear,0,2013-01-04 20:35:00
1:55 PM,15.8,3.2,58,30.15,10.0,Calm,Calm,-,N/A,,Clear,0,2013-01-04 20:55:00
2:15 PM,17.6,3.2,53,30.15,10.0,Calm,Calm,-,N/A,,Clear,0,2013-01-04 21:15:00
2:35 PM,17.6,5.0,58,30.14,10.0,Calm,Calm,-,N/A,,Clear,0,2013-01-04 21:35:00
2:55 PM,15.8,5.0,62,30.14,10.0,East,4.6,-,N/A,,Clear,90,2013-01-04 21:55:00
3:15 PM,14.0,3.2,62,30.14,10.0,East,4.6,-,N/A,,Clear,100,2013-01-04 22:15:00
3:35 PM,15.8,3.2,58,30.14,10.0,Calm,Calm,-,N/A,,Clear,0,2013-01-04 22:35:00
3:55 PM,17.6,3.2,53,30.14,10.0,Calm,Calm,-,N/A,,Clear,0,2013-01-04 22:55:00
4:15 PM,14.0,3.2,62,30.14,10.0,Calm,Calm,-,N/A,,Clear,0,2013-01-04 23:15:00
4:35 PM,12.2,1.4,62,30.14,10.0,ESE,3.5,-,N/A,,Clear,120,2013-01-04 23:35:00
4:55 PM,10.4,-0.4,62,30.14,10.0,East,5.8,-,N/A,,Clear,80,2013-01-04 23:55:00
5:15 PM,5.0,-2.2,72,30.14,10.0,Calm,Calm,-,N/A,,Clear,0,2013-01-05 00:15:00
5:35 PM,3.2,-4.0,72,30.14,10.0,Calm,Calm,-,N/A,,Clear,0,2013-01-05 00:35:00
5:55 PM,3.2,-2.2,78,30.14,10.0,Calm,Calm,-,N/A,,Clear,0,2013-01-05 00:55:00
6:15 PM,1.4,-2.2,85,30.14,10.0,Calm,Calm,-,N/A,,Clear,0,2013-01-05 01:15:00
6:35 PM,1.4,-2.2,85,30.13,10.0,Calm,Calm,-,N/A,,Clear,0,2013-01-05 01:35:00
6:55 PM,-2.2,-5.8,85,30.13,10.0,Calm,Calm,-,N/A,,Clear,0,2013-01-05 01:55:00
7:15 PM,-2.2,-5.8,85,30.13,10.0,North,3.5,-,N/A,,Clear,10,2013-01-05 02:15:00
7:35 PM,-4.0,-7.6,85,30.13,10.0,Calm,Calm,-,N/A,,Clear,0,2013-01-05 02:35:00
7:55 PM,-4.0,-7.6,85,30.13,10.0,ENE,3.5,-,N/A,,Clear,60,2013-01-05 02:55:00
8:15 PM,-5.8,-9.4,84,30.13,10.0,ENE,3.5,-,N/A,,Clear,60,2013-01-05 03:15:00
8:35 PM,-5.8,-9.4,84,30.13,10.0,Calm,Calm,-,N/A,,Clear,0,2013-01-05 03:35:00
8:55 PM,-5.8,-7.6,92,30.13,10.0,Calm,Calm,-,N/A,,Clear,0,2013-01-05 03:55:00
9:15 PM,-5.8,-9.4,84,30.13,10.0,Calm,Calm,-,N/A,,Clear,0,2013-01-05 04:15:00
9:35 PM,-4.0,-7.6,85,30.14,10.0,ESE,4.6,-,N/A,,Clear,120,2013-01-05 04:35:00
9:55 PM,-4.0,-7.6,85,30.15,10.0,Calm,Calm,-,N/A,,Clear,0,2013-01-05 04:55:00
10:15 PM,-4.0,-7.6,85,30.15,10.0,Calm,Calm,-,N/A,,Clear,0,2013-01-05 05:15:00
10:35 PM,-7.6,-9.4,92,30.16,10.0,Calm,Calm,-,N/A,,Clear,0,2013-01-05 05:35:00
10:55 PM,-5.8,-9.4,84,30.16,10.0,Calm,Calm,-,N/A,,Clear,0,2013-01-05 05:55:00
11:15 PM,-7.6,-13.0,77,30.16,10.0,Calm,Calm,-,N/A,,Clear,0,2013-01-05 06:15:00
11:35 PM,-7.6,-13.0,77,30.17,10.0,Calm,Calm,-,N/A,,Clear,0,2013-01-05 06:35:00
11:55 PM,-7.6,-11.2,84,30.17,10.0,Calm,Calm,-,N/A,,Clear,0,2013-01-05 06:55:00